"Pseudo-MPEC" for GNEO01

Created 2019 Apr 22 11:07:02 UT using Find_Orb

Click here for an explanation of pseudo-MPECs

 
 Astrometry: 
     GNEO01  'C2019 04 14m.qF.OTv9$M_oTL4TmC1.+DR`!1reP?MGAstrometry?[PM1iR_(309
     GNEO01  'C2019 04 14GmT6H8E3*WRk2==wredacted;Gclick]KH`yPrB(1K)$%?'2Ln2V309
     GNEO01  'C2019 04 14%?!7\?i*:R$T+.N67ytpX9herev:KH.8Y4WZK9S:w/.*4c5BCc3[309
     GNEO01  'C2019 04 14-QuMiPwc1Ow7forhQQ@`:JNW_K#8[sEfHy:7YD5w-*7I5iiv]m$:309
     GNEO01  'C2019 04 14,O:/gv]f+@VCyTXQaXWFJ[mo1Pb6joe*XSZ;swG9-D9bVD#h!#8(309
     GNEO01  'C2019 04 14_+Qpexplanation[n,K=L0uYjkRAlF)69El]H4^M@eXL5:@v?7H)309

Station data:
(309) Cerro Paranal  (S24.627212 W70.404310)  Chile.

Orbital elements:  GNEO01
   Perihelion 2019 Nov 8.823195 +/- 119 TT = 19:45:24 (JD 2458796.323195)
Epoch 2019 Apr 14.0 TT = JDT 2458587.5   Earth MOID: 0.2961   AutoNEOCP
M 236.01939799 +/- 70               (J2000 ecliptic)
n   0.59371087 +/- 0.334            Peri.  308.13635 +/- 90
a   1.40201517 +/- 0.526            Node    32.44680 +/- 28
e   0.1038538 +/- 0.283             Incl.   18.02116 +/- 23
P   1.66/606.34d           H 22.3   G  0.15   U 12.0  SR
q 1.25641056 +/- 0.596    Q 1.54761977 +/- 31.1
From 6 observations 2019 Apr. 14 (13.9 min); mean residual 0".12
Residuals in arcseconds: 
190414 309  .06-  .04-    190414 309  .22-  .03+    190414 309  .17+  .02+    
190414 309  .06+  .00     190414 309  .21+  .05+    190414 309  .16-  .06-    

Ephemerides (geocentric):
Date (UTC) HH   RA              Dec         delta   r     elong  mag " sig PA
---- -- -- --  -------------   -----------  ------ ------ -----  --- ---- ---
2019 04 22 11  14 00 42.905   -11 42 48.27  .47814 1.4832 179.3 21.7 0.0    0
2019 04 22 12  14 00 36.407   -11 43 34.02  .47808 1.4832 179.4 21.7 0.0    0
2019 04 22 13  14 00 29.906   -11 44 19.77  .47801 1.4831 179.4 21.7 0.0    0
2019 04 22 14  14 00 23.403   -11 45 05.52  .47795 1.4831 179.5 21.7 0.0    0
2019 04 22 15  14 00 16.897   -11 45 51.28  .47789 1.4830 179.5 21.7 0.0    0
2019 04 22 16  14 00 10.389   -11 46 37.05  .47782 1.4830 179.6 21.6 0.0    0
2019 04 22 17  14 00 03.878   -11 47 22.81  .47776 1.4829 179.6 21.6 0.0    0
2019 04 22 18  13 59 57.365   -11 48 08.58  .47770 1.4829 179.6 21.6 0.0    0
2019 04 22 19  13 59 50.850   -11 48 54.36  .47764 1.4828 179.6 21.6 0.0    0
2019 04 22 20  13 59 44.332   -11 49 40.13  .47758 1.4828 179.6 21.6 0.0    0
2019 04 22 21  13 59 37.813   -11 50 25.91  .47752 1.4827 179.6 21.6 0.0    0
2019 04 22 22  13 59 31.290   -11 51 11.69  .47746 1.4827 179.6 21.6 0.0    0
2019 04 22 23  13 59 24.766   -11 51 57.48  .47740 1.4826 179.5 21.6 0.0    0
2019 04 23 00  13 59 18.239   -11 52 43.27  .47734 1.4826 179.5 21.6 0.0    0
2019 04 23 01  13 59 11.710   -11 53 29.06  .47728 1.4825 179.5 21.7 0.0    0
2019 04 23 02  13 59 05.179   -11 54 14.85  .47722 1.4825 179.4 21.7 0.0    0
2019 04 23 03  13 58 58.645   -11 55 00.65  .47716 1.4824 179.4 21.7 0.0    0
2019 04 23 04  13 58 52.110   -11 55 46.45  .47710 1.4824 179.3 21.7 0.0    0
2019 04 23 05  13 58 45.572   -11 56 32.25  .47705 1.4823 179.3 21.7 0.0    0
2019 04 23 06  13 58 39.032   -11 57 18.05  .47699 1.4823 179.2 21.7 0.0  179
2019 04 23 07  13 58 32.490   -11 58 03.86  .47693 1.4822 179.2 21.7 0.0  179
2019 04 23 08  13 58 25.946   -11 58 49.67  .47688 1.4822 179.1 21.7 0.0  179
2019 04 23 09  13 58 19.400   -11 59 35.48  .47682 1.4821 179.0 21.7 0.0  179
2019 04 23 10  13 58 12.852   -12 00 21.29  .47677 1.4821 179.0 21.7 0.0  179
2019 04 23 11  13 58 06.302   -12 01 07.10  .47671 1.4820 178.9 21.7 0.0  179
2019 04 23 12  13 57 59.749   -12 01 52.92  .47666 1.4820 178.9 21.7 0.0  179
2019 04 23 13  13 57 53.195   -12 02 38.74  .47660 1.4819 178.8 21.7 0.0  179
2019 04 23 14  13 57 46.639   -12 03 24.56  .47655 1.4819 178.7 21.7 0.0  179
2019 04 23 15  13 57 40.081   -12 04 10.38  .47650 1.4818 178.7 21.7 0.0  179
2019 04 23 16  13 57 33.521   -12 04 56.20  .47644 1.4818 178.6 21.7 0.0  179
2019 04 23 17  13 57 26.959   -12 05 42.02  .47639 1.4817 178.6 21.7 0.0  179
2019 04 23 18  13 57 20.395   -12 06 27.84  .47634 1.4817 178.5 21.7 0.0  179
2019 04 23 19  13 57 13.829   -12 07 13.67  .47629 1.4816 178.4 21.7 0.0  179
2019 04 23 20  13 57 07.262   -12 07 59.50  .47623 1.4816 178.4 21.7 0.0  179
2019 04 23 21  13 57 00.693   -12 08 45.32  .47618 1.4815 178.3 21.7 0.0  179
2019 04 23 22  13 56 54.121   -12 09 31.15  .47613 1.4815 178.2 21.7 0.0  179
2019 04 23 23  13 56 47.549   -12 10 16.98  .47608 1.4814 178.2 21.7 0.0  179
2019 04 24 00  13 56 40.974   -12 11 02.81  .47603 1.4814 178.1 21.7 0.0  179
2019 04 24 01  13 56 34.397   -12 11 48.64  .47598 1.4813 178.0 21.7 0.0  179
2019 04 24 02  13 56 27.819   -12 12 34.47  .47594 1.4813 178.0 21.8 0.0  179
2019 04 24 03  13 56 21.239   -12 13 20.30  .47589 1.4812 177.9 21.8 0.0  179
2019 04 24 04  13 56 14.658   -12 14 06.14  .47584 1.4812 177.9 21.8 0.0  179
2019 04 24 05  13 56 08.075   -12 14 51.97  .47579 1.4811 177.8 21.8 0.0  179
2019 04 24 06  13 56 01.490   -12 15 37.80  .47574 1.4811 177.7 21.8 0.0  178
2019 04 24 07  13 55 54.904   -12 16 23.63  .47570 1.4810 177.7 21.8 0.0  178
2019 04 24 08  13 55 48.316   -12 17 09.47  .47565 1.4810 177.6 21.8 0.0  178
2019 04 24 09  13 55 41.726   -12 17 55.30  .47560 1.4809 177.5 21.8 0.0  178
2019 04 24 10  13 55 35.135   -12 18 41.13  .47556 1.4809 177.5 21.8 0.0  178